Location: Unspecified
(0.0000°N, 0.0000°E)
Time: 01:42:52
(UTC+00:00)

Envisat - Pass Details

Date: 28 May 2017
Orbit: 764 x 766 km, 98.2° (Epoch: 22 June)

Event Time Altitude Azimuth Distance (km) Brightness Sun altitude
Exits shadow 20:02:50 15° 21° (NNE) 1,953 5.1 -28.9°
Drops below altitude 10° 20:03:50 10° 14° (NNE) 2,293 5.6 -29.2°
Sets 20:06:19 0° 5° (N) 3,216 6.5 -29.7°
